# Tabular Observed and Forecast Hydrograph Information
#
# Location: Sacramento River - Verona (VONC1)
#
# File Generation Time: 09/03/2026 at 07:08 AM PDT
# Data Interval: 1 Hour
#
# Most Recent Date & Time of Maximum Observed: 09/03/2026 at 04:00 AM PDT
# Maximum Observed Stage: 16.58 Feet
# Maximum Observed Flow: 17619 cfs
#
# Earliest Date & Time of Maximum Forecast: 09/06/2026 at 06:00 PM PDT
# Maximum Forecast Stage: 16.63 Feet
# Maximum Forecast Flow: 17724 cfs
#
# OBSERVED
#
# Date & Time (Local) Stage (Feet) Flow (cfs) Trend Observed Status
# ---------------------------------------------------------------------------------
08/29/2026 07 AM PDT 16.39 17225 Normal
08/29/2026 08 AM PDT 16.39 17225 0 Normal
08/29/2026 09 AM PDT 16.38 17204 - Normal
08/29/2026 10 AM PDT 16.39 17225 + Normal
08/29/2026 11 AM PDT 16.40 17245 + Normal
08/29/2026 12 PM PDT 16.40 17245 0 Normal
08/29/2026 01 PM PDT 16.42 17287 + Normal
08/29/2026 02 PM PDT 16.44 17328 + Normal
08/29/2026 03 PM PDT 16.44 17328 0 Normal
08/29/2026 04 PM PDT 16.45 17349 + Normal
08/29/2026 05 PM PDT 16.45 17349 0 Normal
08/29/2026 06 PM PDT 16.45 17349 0 Normal
08/29/2026 07 PM PDT 16.46 17370 + Normal
08/29/2026 08 PM PDT 16.46 17370 0 Normal
08/29/2026 09 PM PDT 16.47 17391 + Normal
08/29/2026 10 PM PDT 16.47 17391 0 Normal
08/29/2026 11 PM PDT 16.48 17411 + Normal
08/30/2026 12 AM PDT 16.47 17391 - Normal
08/30/2026 01 AM PDT 16.47 17391 0 Normal
08/30/2026 02 AM PDT 16.47 17391 0 Normal
08/30/2026 03 AM PDT 16.46 17370 - Normal
08/30/2026 04 AM PDT 16.46 17370 0 Normal
08/30/2026 05 AM PDT 16.45 17349 - Normal
08/30/2026 06 AM PDT 16.44 17328 - Normal
08/30/2026 07 AM PDT 16.42 17287 - Normal
08/30/2026 08 AM PDT 16.42 17287 0 Normal
08/30/2026 09 AM PDT 16.40 17245 - Normal
08/30/2026 10 AM PDT 16.40 17245 0 Normal
08/30/2026 11 AM PDT 16.41 17266 + Normal
08/30/2026 12 PM PDT 16.41 17266 0 Normal
08/30/2026 01 PM PDT 16.43 17308 + Normal
08/30/2026 02 PM PDT 16.43 17308 0 Normal
08/30/2026 03 PM PDT 16.43 17308 0 Normal
08/30/2026 04 PM PDT 16.42 17287 - Normal
08/30/2026 05 PM PDT 16.43 17308 + Normal
08/30/2026 06 PM PDT 16.42 17287 - Normal
08/30/2026 07 PM PDT 16.43 17308 + Normal
08/30/2026 08 PM PDT 16.43 17308 0 Normal
08/30/2026 09 PM PDT 16.43 17308 0 Normal
08/30/2026 10 PM PDT 16.43 17308 0 Normal
08/30/2026 11 PM PDT 16.43 17308 0 Normal
08/31/2026 12 AM PDT 16.43 17308 0 Normal
08/31/2026 01 AM PDT 16.43 17308 0 Normal
08/31/2026 02 AM PDT 16.42 17287 - Normal
08/31/2026 03 AM PDT 16.42 17287 0 Normal
08/31/2026 04 AM PDT 16.41 17266 - Normal
08/31/2026 05 AM PDT 16.41 17266 0 Normal
08/31/2026 06 AM PDT 16.40 17245 - Normal
08/31/2026 07 AM PDT 16.39 17225 - Normal
08/31/2026 08 AM PDT 16.39 17225 0 Normal
08/31/2026 09 AM PDT 16.38 17204 - Normal
08/31/2026 10 AM PDT 16.39 17225 + Normal
08/31/2026 11 AM PDT 16.40 17245 + Normal
08/31/2026 12 PM PDT 16.42 17287 + Normal
08/31/2026 01 PM PDT 16.43 17308 + Normal
08/31/2026 02 PM PDT 16.45 17349 + Normal
08/31/2026 03 PM PDT 16.44 17328 - Normal
08/31/2026 04 PM PDT 16.45 17349 + Normal
08/31/2026 05 PM PDT 16.45 17349 0 Normal
08/31/2026 06 PM PDT 16.45 17349 0 Normal
08/31/2026 07 PM PDT 16.45 17349 0 Normal
08/31/2026 08 PM PDT 16.45 17349 0 Normal
08/31/2026 09 PM PDT 16.44 17328 - Normal
08/31/2026 10 PM PDT 16.43 17308 - Normal
08/31/2026 11 PM PDT 16.45 17349 + Normal
09/01/2026 12 AM PDT 16.44 17328 - Normal
09/01/2026 01 AM PDT 16.45 17349 + Normal
09/01/2026 02 AM PDT 16.44 17328 - Normal
09/01/2026 03 AM PDT 16.44 17328 0 Normal
09/01/2026 04 AM PDT 16.43 17308 - Normal
09/01/2026 05 AM PDT 16.43 17308 0 Normal
09/01/2026 06 AM PDT 16.43 17308 0 Normal
09/01/2026 07 AM PDT 16.42 17287 - Normal
09/01/2026 08 AM PDT 16.40 17245 - Normal
09/01/2026 09 AM PDT 16.41 17266 + Normal
09/01/2026 10 AM PDT 16.42 17287 + Normal
09/01/2026 11 AM PDT 16.42 17287 0 Normal
09/01/2026 12 PM PDT 16.43 17308 + Normal
09/01/2026 01 PM PDT 16.43 17308 0 Normal
09/01/2026 02 PM PDT 16.44 17328 + Normal
09/01/2026 03 PM PDT 16.45 17349 + Normal
09/01/2026 04 PM PDT 16.45 17349 0 Normal
09/01/2026 05 PM PDT 16.46 17370 + Normal
09/01/2026 06 PM PDT 16.46 17370 0 Normal
09/01/2026 07 PM PDT 16.46 17370 0 Normal
09/01/2026 08 PM PDT 16.46 17370 0 Normal
09/01/2026 09 PM PDT 16.47 17391 + Normal
09/01/2026 10 PM PDT 16.48 17411 + Normal
09/01/2026 11 PM PDT 16.47 17391 - Normal
09/02/2026 12 AM PDT 16.47 17391 0 Normal
09/02/2026 01 AM PDT 16.48 17411 + Normal
09/02/2026 02 AM PDT 16.49 17432 + Normal
09/02/2026 03 AM PDT 16.49 17432 0 Normal
09/02/2026 04 AM PDT 16.50 17453 + Normal
09/02/2026 05 AM PDT 16.49 17432 - Normal
09/02/2026 06 AM PDT 16.49 17432 0 Normal
09/02/2026 07 AM PDT 16.48 17411 - Normal
09/02/2026 08 AM PDT 16.47 17391 - Normal
09/02/2026 09 AM PDT 16.45 17349 - Normal
09/02/2026 10 AM PDT 16.46 17370 + Normal
09/02/2026 11 AM PDT 16.46 17370 0 Normal
09/02/2026 12 PM PDT 16.46 17370 0 Normal
09/02/2026 01 PM PDT 16.45 17349 - Normal
09/02/2026 02 PM PDT 16.45 17349 0 Normal
09/02/2026 03 PM PDT 16.45 17349 0 Normal
09/02/2026 04 PM PDT 16.46 17370 + Normal
09/02/2026 05 PM PDT 16.48 17411 + Normal
09/02/2026 06 PM PDT 16.47 17391 - Normal
09/02/2026 07 PM PDT 16.49 17432 + Normal
09/02/2026 08 PM PDT 16.49 17432 0 Normal
09/02/2026 09 PM PDT 16.50 17453 + Normal
09/02/2026 10 PM PDT 16.51 17474 + Normal
09/02/2026 11 PM PDT 16.53 17515 + Normal
09/03/2026 12 AM PDT 16.54 17536 + Normal
09/03/2026 01 AM PDT 16.55 17557 + Normal
09/03/2026 02 AM PDT 16.57 17599 + Normal
09/03/2026 03 AM PDT 16.57 17599 0 Normal
09/03/2026 04 AM PDT 16.58 17619 + Normal
09/03/2026 05 AM PDT 16.57 17599 - Normal
09/03/2026 06 AM PDT 16.57 17599 0 Normal
09/03/2026 07 AM PDT 16.57 17599 0 Normal
#
# FORECAST
#
# Date & Time (Local) Stage (Feet) Flow (cfs) Trend Forecast Status
# ---------------------------------------------------------------------------------
09/03/2026 08 AM PDT 16.57 17599 Normal
09/03/2026 09 AM PDT 16.57 17599 0 Normal
09/03/2026 10 AM PDT 16.56 17578 - Normal
09/03/2026 11 AM PDT 16.56 17578 0 Normal
09/03/2026 12 PM PDT 16.56 17578 0 Normal
09/03/2026 01 PM PDT 16.56 17578 0 Normal
09/03/2026 02 PM PDT 16.56 17578 0 Normal
09/03/2026 03 PM PDT 16.56 17578 0 Normal
09/03/2026 04 PM PDT 16.56 17578 0 Normal
09/03/2026 05 PM PDT 16.56 17578 0 Normal
09/03/2026 06 PM PDT 16.58 17619 + Normal
09/03/2026 07 PM PDT 16.58 17619 0 Normal
09/03/2026 08 PM PDT 16.57 17599 - Normal
09/03/2026 09 PM PDT 16.57 17599 0 Normal
09/03/2026 10 PM PDT 16.57 17599 0 Normal
09/03/2026 11 PM PDT 16.57 17599 0 Normal
09/04/2026 12 AM PDT 16.57 17599 0 Normal
09/04/2026 01 AM PDT 16.57 17599 0 Normal
09/04/2026 02 AM PDT 16.57 17599 0 Normal
09/04/2026 03 AM PDT 16.57 17599 0 Normal
09/04/2026 04 AM PDT 16.57 17599 0 Normal
09/04/2026 05 AM PDT 16.57 17599 0 Normal
09/04/2026 06 AM PDT 16.57 17599 0 Normal
09/04/2026 07 AM PDT 16.57 17599 0 Normal
09/04/2026 08 AM PDT 16.57 17599 0 Normal
09/04/2026 09 AM PDT 16.57 17599 0 Normal
09/04/2026 10 AM PDT 16.57 17599 0 Normal
09/04/2026 11 AM PDT 16.57 17599 0 Normal
09/04/2026 12 PM PDT 16.57 17599 0 Normal
09/04/2026 01 PM PDT 16.57 17599 0 Normal
09/04/2026 02 PM PDT 16.57 17599 0 Normal
09/04/2026 03 PM PDT 16.57 17599 0 Normal
09/04/2026 04 PM PDT 16.57 17599 0 Normal
09/04/2026 05 PM PDT 16.57 17599 0 Normal
09/04/2026 06 PM PDT 16.58 17619 + Normal
09/04/2026 07 PM PDT 16.58 17619 0 Normal
09/04/2026 08 PM PDT 16.58 17619 0 Normal
09/04/2026 09 PM PDT 16.58 17619 0 Normal
09/04/2026 10 PM PDT 16.58 17619 0 Normal
09/04/2026 11 PM PDT 16.58 17619 0 Normal
09/05/2026 12 AM PDT 16.58 17619 0 Normal
09/05/2026 01 AM PDT 16.58 17619 0 Normal
09/05/2026 02 AM PDT 16.58 17619 0 Normal
09/05/2026 03 AM PDT 16.58 17619 0 Normal
09/05/2026 04 AM PDT 16.59 17640 + Normal
09/05/2026 05 AM PDT 16.59 17640 0 Normal
09/05/2026 06 AM PDT 16.59 17640 0 Normal
09/05/2026 07 AM PDT 16.59 17640 0 Normal
09/05/2026 08 AM PDT 16.59 17640 0 Normal
09/05/2026 09 AM PDT 16.59 17640 0 Normal
09/05/2026 10 AM PDT 16.59 17640 0 Normal
09/05/2026 11 AM PDT 16.59 17640 0 Normal
09/05/2026 12 PM PDT 16.59 17640 0 Normal
09/05/2026 01 PM PDT 16.59 17640 0 Normal
09/05/2026 02 PM PDT 16.60 17661 + Normal
09/05/2026 03 PM PDT 16.60 17661 0 Normal
09/05/2026 04 PM PDT 16.60 17661 0 Normal
09/05/2026 05 PM PDT 16.60 17661 0 Normal
09/05/2026 06 PM PDT 16.61 17682 + Normal
09/05/2026 07 PM PDT 16.62 17703 + Normal
09/05/2026 08 PM PDT 16.62 17703 0 Normal
09/05/2026 09 PM PDT 16.62 17703 0 Normal
09/05/2026 10 PM PDT 16.62 17703 0 Normal
09/05/2026 11 PM PDT 16.62 17703 0 Normal
09/06/2026 12 AM PDT 16.62 17703 0 Normal
09/06/2026 01 AM PDT 16.62 17703 0 Normal
09/06/2026 02 AM PDT 16.62 17703 0 Normal
09/06/2026 03 AM PDT 16.62 17703 0 Normal
09/06/2026 04 AM PDT 16.62 17703 0 Normal
09/06/2026 05 AM PDT 16.62 17703 0 Normal
09/06/2026 06 AM PDT 16.62 17703 0 Normal
09/06/2026 07 AM PDT 16.62 17703 0 Normal
09/06/2026 08 AM PDT 16.62 17703 0 Normal
09/06/2026 09 AM PDT 16.62 17703 0 Normal
09/06/2026 10 AM PDT 16.62 17703 0 Normal
09/06/2026 11 AM PDT 16.62 17703 0 Normal
09/06/2026 12 PM PDT 16.62 17703 0 Normal
09/06/2026 01 PM PDT 16.62 17703 0 Normal
09/06/2026 02 PM PDT 16.62 17703 0 Normal
09/06/2026 03 PM PDT 16.62 17703 0 Normal
09/06/2026 04 PM PDT 16.62 17703 0 Normal
09/06/2026 05 PM PDT 16.62 17703 0 Normal
09/06/2026 06 PM PDT 16.63 17724 + Normal
09/06/2026 07 PM PDT 16.63 17724 0 Normal
09/06/2026 08 PM PDT 16.63 17724 0 Normal
09/06/2026 09 PM PDT 16.63 17724 0 Normal
09/06/2026 10 PM PDT 16.62 17703 - Normal
09/06/2026 11 PM PDT 16.62 17703 0 Normal
09/07/2026 12 AM PDT 16.62 17703 0 Normal
09/07/2026 01 AM PDT 16.62 17703 0 Normal
09/07/2026 02 AM PDT 16.61 17682 - Normal
09/07/2026 03 AM PDT 16.61 17682 0 Normal
09/07/2026 04 AM PDT 16.61 17682 0 Normal
09/07/2026 05 AM PDT 16.60 17661 - Normal
09/07/2026 06 AM PDT 16.60 17661 0 Normal
09/07/2026 07 AM PDT 16.59 17640 - Normal
09/07/2026 08 AM PDT 16.59 17640 0 Normal
09/07/2026 09 AM PDT 16.59 17640 0 Normal
09/07/2026 10 AM PDT 16.58 17619 - Normal
09/07/2026 11 AM PDT 16.57 17599 - Normal
09/07/2026 12 PM PDT 16.57 17599 0 Normal
09/07/2026 01 PM PDT 16.56 17578 - Normal
09/07/2026 02 PM PDT 16.56 17578 0 Normal
09/07/2026 03 PM PDT 16.55 17557 - Normal
09/07/2026 04 PM PDT 16.55 17557 0 Normal
09/07/2026 05 PM PDT 16.54 17536 - Normal
09/07/2026 06 PM PDT 16.55 17557 + Normal
09/07/2026 07 PM PDT 16.55 17557 0 Normal
09/07/2026 08 PM PDT 16.54 17536 - Normal
09/07/2026 09 PM PDT 16.54 17536 0 Normal
09/07/2026 10 PM PDT 16.53 17515 - Normal
09/07/2026 11 PM PDT 16.52 17494 - Normal
09/08/2026 12 AM PDT 16.52 17494 0 Normal
09/08/2026 01 AM PDT 16.52 17494 0 Normal
09/08/2026 02 AM PDT 16.51 17474 - Normal
09/08/2026 03 AM PDT 16.51 17474 0 Normal
09/08/2026 04 AM PDT 16.50 17453 - Normal
09/08/2026 05 AM PDT 16.50 17453 0 Normal
#
# NOTE 1: Stages are rounded to the nearest hundredth (.01) of a foot.
# NOTE 2: Flows are rounded to the nearest (1) cfs.
# NOTE 3: Trends are determined using hourly change in unrounded stage and flow.
# NOTE 4: Maximum Values are determined using unrounded stage and flow.
|